Theta_e
302 302 302 302 302 303 304 304 304 305 304 304 304 303 303 304 304 304 305 305 306 306 305 304 304 305 304 304 303 303 303 303 304 303 304 307 307 308 312 312 311 309 308 308 308 308 310 309 309 315 318 317 317 318 320 320 318 317 316 316 316 317 317 317 319 319 319 321 321 322 321 321 321 324 323 325 336 344 346 349 349 348 349 350 351 351 350 350
302 302 301 301 301 302 303 304 304 304 304 304 304 303 303 304 304 304 305 305 305 306 306 305 304 304 304 303 303 303 303 303 304 304 305 308 307 307 310 311 310 308 308 308 308 309 312 310 309 314 316 316 317 318 318 319 318 317 317 317 316 317 318 318 319 320 321 321 321 323 322 322 322 324 324 326 336 343 347 350 351 351 351 351 351 351 351 351
303 302 301 301 301 301 303 303 303 304 304 304 304 303 302 304 305 305 305 305 305 305 305 305 304 304 304 303 303 303 304 304 305 305 307 307 307 308 309 310 310 308 308 308 308 312 315 314 312 314 316 317 317 317 318 318 318 317 317 317 317 317 317 318 319 320 322 321 321 322 321 323 325 326 325 326 333 339 347 350 351 352 352 352 352 351 351 351
303 302 301 301 301 301 302 303 303 303 304 304 304 303 301 303 305 305 304 305 305 305 304 304 304 303 303 302 303 304 305 307 308 308 308 308 307 308 308 309 310 309 309 308 309 316 318 317 315 315 316 317 317 318 317 317 317 317 316 316 317 317 317 318 318 319 321 322 321 320 321 322 324 327 326 325 332 337 344 347 347 350 352 352 351 351 351 351
303 302 301 301 300 301 302 303 303 303 303 303 303 303 301 302 304 305 304 304 304 305 304 304 303 303 303 302 302 304 306 310 312 313 312 310 309 308 308 309 309 309 309 308 309 316 318 317 316 315 317 317 316 317 317 317 317 317 317 316 317 317 317 317 318 319 321 322 321 321 320 320 323 328 327 330 337 339 342 344 342 346 350 351 350 350 350 351
302 302 301 300 300 301 302 302 303 303 303 303 303 302 301 301 303 304 304 304 304 304 303 303 303 303 302 302 302 303 308 314 314 314 313 311 311 310 309 309 309 308 308 308 308 313 315 316 316 315 316 317 316 317 317 318 317 317 317 316 317 317 317 317 318 318 320 321 321 320 320 321 321 324 330 335 339 340 342 344 342 345 349 349 349 348 349 351
302 301 301 300 300 301 302 302 303 303 302 303 303 303 302 301 302 303 303 304 304 304 303 302 303 302 302 302 301 303 307 312 312 313 312 311 311 310 310 310 309 308 308 308 308 312 314 315 316 316 315 317 317 317 318 318 317 317 317 316 317 317 317 318 318 319 320 320 320 321 319 321 320 321 333 337 338 340 341 344 345 348 348 348 349 347 349 351
301 301 301 301 301 301 301 302 302 302 302 302 303 303 303 302 302 302 302 303 303 303 302 302 303 302 302 302 302 306 307 309 312 313 311 311 310 310 310 310 310 308 307 308 309 313 314 314 315 315 314 317 318 318 318 318 317 317 317 317 317 317 318 318 318 318 319 320 319 320 319 320 320 320 332 338 337 338 339 341 343 346 347 347 349 348 350 350
300 301 301 301 301 301 301 301 302 302 302 302 302 303 303 303 302 302 302 302 302 302 302 302 302 302 302 301 304 308 309 307 311 310 310 310 309 311 310 310 310 308 307 308 310 313 313 312 314 316 315 316 318 318 318 317 317 318 318 317 317 318 318 318 319 319 319 320 319 319 319 320 321 320 330 338 338 337 337 338 342 345 346 347 348 349 349 348
300 300 301 301 301 301 300 301 301 302 302 301 302 302 303 303 303 303 301 301 301 302 302 302 302 303 302 302 305 308 308 305 309 308 309 310 309 312 312 311 309 308 307 307 309 311 311 312 314 315 316 316 317 318 317 316 317 317 317 317 318 317 318 317 318 319 319 319 319 318 319 320 320 318 327 337 338 337 338 338 343 346 345 346 347 348 347 347
300 300 301 301 301 301 300 301 301 301 301 302 303 302 303 303 303 303 301 301 301 300 302 302 303 303 301 303 306 308 306 305 308 307 310 311 310 313 314 312 310 309 308 307 308 310 311 312 313 314 315 315 316 316 317 316 317 317 318 317 317 317 318 318 317 318 319 319 319 319 319 320 320 318 325 336 337 336 337 339 343 344 345 346 347 347 347 348
300 300 300 300 300 300 299 300 301 301 301 302 303 303 302 303 302 302 301 301 300 300 302 302 302 302 302 304 305 306 305 306 308 309 311 311 311 312 314 313 312 311 309 307 307 309 310 311 312 312 314 315 315 315 316 316 317 317 317 316 317 317 316 317 317 318 318 318 319 319 318 318 319 318 324 335 336 335 336 338 341 343 345 347 347 347 348 347
300 300 300 300 300 299 299 300 300 301 301 302 302 303 303 302 302 301 300 300 300 300 301 301 302 302 304 305 305 303 304 306 306 308 310 311 311 312 313 313 313 314 312 309 308 308 310 311 311 312 312 314 314 315 316 316 317 316 316 315 317 317 316 317 317 317 317 318 319 318 317 317 319 318 321 331 335 334 335 336 339 342 344 345 345 346 347 347
300 300 300 299 299 298 299 300 300 301 301 302 302 303 302 302 301 300 300 300 299 299 300 301 301 302 305 305 303 302 304 305 304 306 309 310 311 312 312 312 313 314 314 312 310 310 310 310 311 311 312 312 313 314 315 315 316 315 315 315 317 317 316 317 317 317 317 318 318 318 317 317 320 318 320 329 332 333 334 336 338 340 341 341 342 344 345 346
300 300 300 299 299 299 300 300 300 300 301 301 302 302 302 301 300 300 299 299 299 299 300 301 301 302 305 304 302 302 304 304 304 306 308 309 310 311 311 312 312 313 314 314 313 312 311 311 311 311 311 312 313 313 313 314 315 315 314 314 316 316 317 317 316 317 317 317 318 318 316 317 318 319 321 327 331 333 336 338 339 339 340 341 342 343 345 346
300 301 300 299 299 299 300 301 300 300 300 301 302 302 301 300 299 300 300 299 299 299 299 300 302 303 304 305 303 304 305 305 306 306 308 308 309 310 310 311 312 313 314 315 315 314 312 312 311 312 311 312 312 312 313 314 314 314 314 314 315 315 315 316 316 316 317 317 317 318 317 318 319 319 321 325 330 335 338 338 339 339 340 341 342 343 345 345
300 301 300 299 299 298 299 300 301 301 301 301 301 301 300 300 301 301 301 301 300 300 300 301 303 304 305 305 305 305 306 305 306 306 307 309 310 309 309 310 312 314 315 316 316 314 314 313 312 312 311 311 312 312 314 313 313 314 314 315 316 315 314 314 315 316 317 317 318 319 317 318 319 319 322 324 332 337 338 338 339 340 340 341 342 344 345 344
301 301 300 299 299 298 299 300 301 301 301 301 301 301 300 302 303 303 302 302 302 302 302 303 304 306 307 306 306 307 305 305 306 306 307 309 310 309 309 309 310 313 316 316 315 314 313 313 312 312 312 312 311 312 313 312 313 315 315 316 315 315 315 314 314 316 317 317 317 319 318 318 319 321 322 324 333 338 338 338 338 339 340 341 342 344 343 342
302 301 301 300 299 299 298 299 300 301 301 301 302 301 300 301 304 304 304 303 304 304 305 305 304 306 307 306 307 306 306 307 307 307 307 307 309 309 309 309 308 311 314 314 314 313 313 313 312 311 311 311 311 312 313 313 313 314 316 316 314 314 314 315 316 316 317 316 317 318 317 318 321 325 325 323 331 337 337 339 338 338 340 340 342 342 341 340
302 302 301 301 300 299 298 298 300 301 302 302 301 301 300 302 306 307 306 304 305 305 305 305 304 304 304 304 305 306 307 308 308 309 308 307 308 308 309 309 308 310 313 313 312 313 313 313 312 311 311 311 312 312 313 314 314 315 315 315 314 313 313 315 316 316 317 317 316 318 318 319 323 326 326 323 329 336 337 337 338 338 340 339 339 339 339 339
302 302 301 301 301 300 298 298 299 300 301 301 301 302 301 303 307 308 307 306 307 306 306 306 306 304 304 304 304 306 307 308 309 309 309 309 308 307 308 308 308 308 311 313 313 313 313 312 312 311 312 312 313 314 315 315 314 314 315 315 314 313 314 315 316 316 318 317 316 318 319 319 323 326 326 323 328 335 336 336 337 338 338 338 337 338 338 339
302 302 302 301 301 300 298 298 298 299 300 301 301 301 301 301 304 306 305 306 307 307 307 308 308 306 306 306 305 306 306 307 308 309 310 309 308 308 308 307 307 308 311 313 313 313 312 312 313 313 313 313 314 315 315 315 315 315 314 314 314 314 314 315 316 317 317 318 318 318 318 319 324 327 325 324 328 334 335 334 336 337 337 338 338 339 340 340
302 302 302 301 301 300 299 298 297 298 299 300 300 301 301 301 303 304 305 305 306 306 306 307 307 307 308 307 306 307 307 307 308 309 310 309 308 308 307 307 307 308 310 311 313 313 312 312 313 314 313 314 315 315 314 315 315 315 314 314 314 315 314 313 315 317 317 318 319 318 320 322 326 329 326 328 332 336 336 336 336 336 337 338 339 340 341 341
301 302 301 301 301 300 299 297 297 298 300 301 302 303 303 303 303 305 305 305 305 305 305 305 306 308 308 307 307 307 308 307 307 309 310 309 308 308 307 307 307 308 309 311 312 313 313 312 313 315 314 315 315 315 314 314 313 314 314 314 314 315 315 315 315 317 317 319 319 322 324 325 327 330 328 330 335 337 335 336 336 336 337 338 339 340 340 341
301 301 301 301 301 300 299 297 298 301 302 303 304 304 305 304 304 305 305 305 305 305 305 305 306 307 307 307 308 309 308 307 308 309 309 309 309 307 307 307 307 307 309 311 312 312 313 314 314 314 314 315 315 314 314 313 313 313 315 314 314 315 316 316 316 316 315 316 318 322 326 328 328 330 330 331 335 337 336 335 335 334 336 337 339 339 339 339
301 301 301 301 301 300 298 297 300 303 303 304 304 305 305 305 305 305 305 306 306 306 306 307 306 306 307 308 308 309 308 308 308 309 310 309 309 308 307 307 307 307 309 312 312 312 313 314 314 315 314 314 314 313 313 313 312 312 315 316 316 316 316 316 316 315 314 315 318 322 327 330 329 328 331 333 335 337 336 336 335 334 334 336 337 338 337 337
300 301 301 301 301 299 298 298 300 302 303 304 305 305 305 306 306 305 306 308 308 308 307 306 306 306 307 308 308 308 308 308 308 309 310 309 309 308 307 307 307 308 311 313 312 312 313 314 314 314 314 314 313 312 312 313 313 312 315 316 316 317 316 316 316 315 316 316 321 325 326 328 327 327 331 333 334 336 338 337 336 334 334 335 336 335 335 335
300 301 301 301 300 299 298 297 298 301 303 304 304 304 305 306 305 306 308 309 311 309 307 305 306 307 307 308 308 308 308 309 309 309 310 310 309 308 307 307 308 309 312 313 312 312 313 314 314 314 313 313 312 312 313 313 313 313 316 316 317 317 317 318 316 316 318 316 320 325 326 327 327 327 330 331 332 336 339 337 335 335 334 334 333 333 333 333
300 301 301 301 300 299 298 297 297 301 303 303 304 304 305 305 306 308 309 309 310 308 308 306 307 307 307 308 308 308 308 308 309 310 310 310 310 308 307 307 308 310 312 312 313 313 313 314 314 314 313 312 313 313 313 313 314 315 316 316 317 317 318 318 317 317 318 317 320 324 325 327 328 327 330 330 331 336 339 335 333 333 332 331 331 331 330 331
300 300 300 301 300 299 299 298 298 301 303 303 303 304 304 305 307 308 308 309 309 309 308 307 307 307 307 308 308 308 308 307 308 309 310 309 310 309 308 308 309 310 312 313 313 313 313 314 314 315 314 313 313 314 314 314 315 316 316 315 316 318 318 319 319 319 317 318 319 321 322 324 326 326 328 330 332 336 338 335 333 332 331 330 330 329 329 329
300 300 300 301 300 299 299 299 300 302 302 303 303 304 304 305 307 307 308 309 309 311 309 307 308 308 308 307 307 307 307 307 308 308 309 309 309 309 308 308 307 309 313 314 313 313 313 313 314 315 314 315 314 314 314 314 315 316 316 315 316 316 317 316 318 317 317 319 319 317 319 320 322 326 327 332 335 335 335 334 332 330 329 329 328 328 328 328
300 300 300 300 300 299 299 299 300 302 303 303 304 304 305 306 307 307 308 307 309 313 312 309 309 308 308 308 307 307 307 307 307 308 309 309 308 308 308 308 307 309 312 314 314 314 314 313 313 315 315 315 314 313 314 314 315 315 315 316 316 315 315 314 317 318 317 318 317 317 318 316 323 330 332 335 335 333 333 332 330 329 328 328 327 327 327 327
300 300 300 300 300 299 298 298 300 302 303 304 304 304 305 306 307 307 306 307 310 312 312 311 311 310 308 308 307 307 306 307 307 307 309 309 308 308 308 309 308 309 312 315 314 314 315 314 313 315 315 315 314 312 313 313 314 315 314 316 316 315 314 315 318 319 319 318 317 317 315 317 329 335 333 334 333 331 331 330 328 328 327 327 326 326 326 325
300 300 300 300 299 298 298 298 299 302 303 303 304 305 305 306 307 307 306 306 309 312 312 311 312 312 310 308 308 307 306 306 306 307 309 309 309 309 309 309 309 309 312 315 315 315 315 315 314 314 314 315 315 313 313 314 314 314 314 316 317 316 317 317 317 319 320 319 316 315 320 327 336 336 331 331 330 329 329 327 327 326 325 325 325 324 325 324
300 300 300 299 298 298 298 298 299 302 302 303 304 304 305 305 306 306 308 309 310 312 311 311 312 313 312 309 308 308 307 307 307 306 308 308 309 310 309 309 309 309 312 316 316 314 314 314 314 315 315 314 315 314 314 315 314 316 315 315 316 318 321 322 322 325 326 320 320 326 331 333 334 331 328 328 327 327 327 326 326 325 324 324 324 324 324 323
299 299 298 298 298 297 297 298 300 301 302 302 303 304 304 304 305 306 309 311 310 311 311 312 313 312 313 311 309 308 307 307 307 307 308 308 309 310 309 309 310 309 311 316 317 315 315 316 314 314 315 313 314 314 314 315 315 317 316 315 316 317 321 322 321 325 327 324 327 332 335 334 332 330 327 326 326 325 325 326 325 324 324 323 323 323 323 322
298 298 299 299 298 298 298 299 301 301 302 303 303 304 304 304 305 306 308 310 310 311 312 313 313 312 313 312 311 309 307 307 308 308 308 308 309 310 310 309 310 309 310 314 317 317 317 318 316 314 315 314 314 315 314 316 316 316 315 315 316 315 320 325 323 320 323 328 330 333 335 335 335 333 329 327 327 326 324 325 325 324 323 323 323 323 322 322
298 298 299 299 299 300 300 300 301 302 302 303 303 303 302 303 304 305 307 309 310 311 311 312 313 313 314 313 311 310 307 307 308 308 308 308 309 310 310 310 310 310 310 312 316 317 317 317 316 314 315 315 315 316 316 316 315 316 316 316 318 317 317 322 322 319 320 328 333 333 334 334 334 332 331 329 328 326 324 324 323 323 323 322 322 322 321 321
298 298 299 299 299 300 301 301 302 302 302 302 302 302 302 303 303 304 306 307 309 312 311 311 313 314 314 314 313 312 310 308 308 308 308 308 308 310 310 310 310 311 310 311 315 318 318 319 318 315 314 316 315 315 315 316 315 316 315 315 317 320 319 318 319 321 322 327 336 336 333 335 333 330 330 329 327 325 324 323 323 322 322 322 321 321 321 320
298 299 300 301 301 301 302 302 302 302 302 302 302 302 302 302 303 304 305 306 308 312 311 311 313 314 314 314 314 313 312 310 308 309 309 308 308 309 310 310 310 310 311 311 314 318 317 319 321 318 313 315 315 314 315 315 315 314 315 315 315 315 319 320 318 320 322 327 334 336 335 335 332 329 329 328 325 324 324 323 322 322 321 321 321 320 320 319
299 300 301 302 302 301 302 302 302 302 302 302 302 302 302 303 304 304 306 307 309 311 310 310 314 315 315 314 314 313 313 312 311 311 310 308 309 310 309 310 310 310 312 312 314 319 319 321 325 321 314 314 314 315 315 315 315 315 314 316 316 316 318 319 317 316 317 322 328 334 336 334 330 330 329 326 325 324 323 323 322 321 321 320 320 319 319 318
299 301 301 302 302 302 302 302 302 302 302 302 302 302 303 304 304 305 307 308 310 311 310 310 312 314 314 313 313 312 313 313 313 312 312 310 310 311 310 310 311 310 313 314 314 319 322 323 324 319 314 315 316 315 315 315 315 314 315 316 318 319 318 319 324 322 315 317 326 334 336 332 329 330 329 326 325 324 323 322 321 321 320 320 319 318 318 317
300 301 300 301 302 302 302 302 303 302 302 303 303 303 304 304 304 305 307 308 309 310 310 310 311 312 312 312 312 313 313 314 313 313 313 312 311 312 310 311 311 310 314 316 316 319 320 320 321 317 315 315 316 315 314 315 315 313 315 316 317 320 320 323 332 330 319 319 329 336 337 332 328 328 327 325 324 323 322 321 321 320 319 319 318 317 317 317
300 301 300 301 302 302 302 303 304 303 303 303 303 304 304 304 304 305 306 307 309 309 309 310 310 311 312 312 312 313 314 315 316 315 314 313 312 314 313 310 311 312 314 316 318 318 317 320 324 320 317 317 317 317 316 315 315 315 317 316 315 319 319 321 326 324 319 322 330 336 336 332 328 326 324 323 322 321 321 320 319 319 318 317 317 316 316 317
300 302 301 301 302 302 303 304 304 304 304 304 305 305 305 305 305 306 307 307 308 309 309 310 311 311 312 312 312 312 313 315 316 316 315 313 312 313 313 312 312 312 314 316 317 317 318 323 326 323 320 319 318 317 316 314 313 316 319 317 315 318 318 320 325 323 319 324 331 335 334 331 327 324 323 321 321 320 320 319 318 318 317 317 316 316 316 316
301 302 303 302 302 302 303 304 304 305 305 306 307 307 306 306 307 307 308 308 308 308 308 308 309 310 311 312 312 313 314 315 316 316 315 315 315 313 312 314 312 310 315 319 317 315 318 322 324 324 322 321 318 316 316 316 315 316 318 316 315 316 317 322 329 327 323 329 333 332 330 329 326 324 322 321 320 319 319 318 317 317 316 316 316 316 316 316
300 302 303 304 304 303 304 305 305 305 305 306 308 309 307 308 308 308 309 309 308 309 310 309 308 309 311 313 313 314 316 316 315 315 316 317 318 317 314 313 313 314 319 321 316 316 320 321 322 323 322 319 317 316 316 316 316 316 318 317 318 318 317 319 328 332 328 331 334 330 328 329 327 324 322 321 320 319 318 317 317 316 316 316 316 316 316 316
301 302 302 303 305 305 304 305 305 305 305 305 307 308 308 309 309 309 310 310 308 309 312 312 310 308 310 312 314 317 318 317 316 317 318 320 321 321 319 314 314 319 319 318 317 319 323 324 322 321 322 321 318 317 317 316 315 316 318 319 320 320 318 320 330 336 332 332 333 329 328 328 327 323 322 320 319 318 317 317 316 315 315 315 315 316 316 316
301 302 302 303 305 305 305 306 306 306 305 305 306 307 309 309 310 310 310 311 311 310 311 313 312 310 310 312 314 317 318 316 318 320 321 323 322 321 322 318 317 319 317 316 317 318 325 328 324 321 322 324 324 323 323 322 318 314 317 322 325 324 325 329 333 334 333 332 329 328 328 327 325 322 321 319 318 316 316 316 315 315 315 315 315 315 315 314
301 301 301 302 304 305 306 307 307 307 307 307 307 308 308 309 310 311 311 311 312 313 311 313 313 311 312 313 313 315 316 316 320 321 321 325 324 320 322 322 318 317 315 317 319 322 330 330 326 324 323 326 330 330 329 329 325 322 324 329 331 330 331 332 332 330 331 330 326 326 326 324 321 319 318 317 316 316 315 315 315 315 315 315 315 314 314 313
301 301 302 302 304 306 307 308 308 308 309 309 308 308 309 310 311 313 313 312 312 313 313 313 314 313 312 313 313 315 316 317 320 320 319 324 324 320 320 321 319 316 316 318 322 329 334 333 329 329 327 326 329 331 330 328 325 326 328 329 331 332 331 330 330 329 329 327 325 324 324 321 319 317 317 316 316 315 315 315 315 315 315 315 314 313 312 311
302 302 302 303 305 307 308 308 308 309 310 310 309 310 310 311 312 312 313 313 312 313 313 313 314 315 314 316 317 317 316 316 317 318 318 319 319 318 318 319 317 317 319 322 324 327 332 333 331 330 328 326 325 329 333 330 327 328 327 325 326 330 328 326 327 327 326 324 324 324 322 318 317 316 316 316 316 315 315 315 315 315 315 314 312 311 310 310
Wind_Speed
15 15 15 15 15 14 14 14 14 14 14 15 16 16 15 15 15 14 13 13 13 13 14 14 12 12 11 10 12 13 15 16 16 17 22 22 15 11 12 10 9 12 13 10 9 10 9 10 15 15 11 9 12 16 16 17 19 13 6 3 5 4 7 8 5 6 3 1 5 4 4 3 3 10 11 7 24 32 29 34 33 31 32 32 31 32 31 26
16 16 17 16 16 15 14 14 14 15 15 15 16 16 15 15 14 13 13 14 13 12 13 13 13 12 11 10 10 12 15 16 18 23 26 20 14 14 15 14 10 10 14 13 11 13 11 10 13 12 11 13 14 16 14 14 16 9 3 4 5 6 10 10 8 7 4 4 7 5 4 4 4 11 11 7 18 29 22 26 34 34 33 33 32 30 29 27
16 17 18 17 17 16 14 14 15 15 16 16 16 16 14 14 14 13 13 14 13 13 12 13 12 12 11 9 9 10 13 14 19 26 25 19 18 17 15 15 13 11 14 14 12 12 12 10 9 10 14 15 16 17 15 13 13 11 7 4 6 8 11 17 18 9 4 5 7 7 7 5 5 13 15 10 12 23 16 18 26 28 31 33 32 30 30 27
16 17 18 18 18 16 15 15 16 15 16 16 16 16 14 13 13 14 13 13 13 13 13 12 12 11 10 8 8 8 9 12 16 19 19 17 18 20 17 14 14 13 14 14 14 13 12 14 12 14 17 14 17 19 13 13 11 9 9 5 7 9 10 18 21 11 3 9 8 10 8 5 1 6 12 9 7 12 15 25 30 31 34 33 32 31 30 28
15 17 17 18 18 17 16 16 16 16 16 17 16 17 15 12 12 14 14 14 13 13 13 13 11 10 9 7 7 6 4 6 5 6 8 9 12 17 17 14 14 15 14 14 16 16 14 17 16 16 17 11 13 14 12 18 15 6 8 11 14 13 9 15 23 18 2 10 3 6 7 10 9 2 3 7 5 4 15 30 34 36 37 34 32 30 29 28
15 16 17 18 18 17 16 16 17 16 16 17 17 17 16 13 12 13 14 14 13 13 13 12 11 10 9 7 8 6 3 1 3 3 2 2 3 11 16 16 16 15 16 16 17 17 15 16 15 15 14 8 9 8 12 21 19 7 5 12 19 18 11 17 26 14 6 9 3 2 8 13 13 5 12 20 13 17 28 33 33 35 34 32 31 29 27 25
15 16 17 18 17 17 16 16 16 17 17 17 17 16 16 14 13 13 14 14 13 13 12 12 12 10 8 7 10 9 11 10 4 6 4 6 4 4 12 17 19 18 19 19 19 18 15 14 16 16 10 7 9 9 14 19 18 10 4 9 16 18 15 21 24 5 12 3 3 5 9 9 11 5 19 26 23 31 35 33 34 33 30 29 28 27 24 21
16 16 17 17 17 16 16 16 17 18 17 17 17 16 16 15 14 14 14 14 14 14 13 13 12 10 8 8 9 7 16 17 6 3 3 7 8 4 7 14 19 21 22 21 22 20 16 15 18 18 8 5 10 10 15 15 11 9 6 10 14 16 17 21 21 2 9 2 6 11 10 6 13 6 15 23 27 33 32 31 32 29 28 28 27 25 22 19
16 17 17 17 17 16 16 16 17 18 17 17 16 15 15 15 14 15 15 15 15 14 14 14 14 11 7 7 6 7 21 22 10 2 6 8 10 7 5 11 16 21 23 22 24 22 16 16 18 17 9 8 11 12 16 11 5 10 10 13 13 15 19 18 17 6 7 4 7 11 6 9 18 9 9 23 31 31 30 30 28 28 28 26 25 25 24 23
17 17 17 17 17 17 17 16 17 18 17 16 16 15 15 15 15 16 16 16 15 15 14 14 14 11 7 8 6 8 21 22 13 9 9 13 15 9 5 8 14 19 23 24 25 25 19 17 17 17 15 12 11 11 16 10 7 14 17 17 14 16 20 17 15 12 9 7 11 10 3 11 18 8 6 22 32 33 32 30 27 28 27 25 26 26 25 23
17 17 17 18 18 18 17 16 17 17 17 15 14 15 15 16 16 16 16 16 16 15 15 14 13 13 10 10 11 15 20 18 16 14 11 11 16 15 8 8 12 15 22 25 25 26 23 19 18 17 12 9 10 11 15 15 15 16 15 14 14 17 19 16 13 9 9 6 10 11 5 11 15 7 9 24 32 35 34 31 28 28 27 27 27 26 23 20
17 17 17 18 19 19 18 16 16 17 17 15 15 15 15 17 17 17 18 17 16 15 14 13 13 13 11 15 24 28 23 17 17 16 14 8 11 17 11 6 10 11 17 23 25 25 24 22 21 19 13 8 9 8 10 16 19 18 13 8 9 12 12 13 12 8 7 5 9 10 5 8 8 8 15 30 35 36 36 33 30 28 29 28 26 24 21 19
17 17 18 19 19 20 18 16 16 16 16 16 16 16 17 18 18 18 18 18 17 15 14 14 14 12 11 18 27 28 23 20 21 20 16 9 8 15 15 12 12 12 13 18 21 22 22 22 21 24 22 14 8 8 10 14 16 14 10 5 4 6 5 10 11 9 7 5 13 11 4 7 6 12 17 29 36 36 35 32 31 30 29 28 25 24 21 19
16 16 18 19 19 19 18 16 16 16 17 17 17 18 18 19 18 17 17 18 17 16 15 14 13 10 12 19 23 25 24 23 27 27 19 10 6 8 15 18 17 16 15 16 17 18 19 20 22 24 24 20 13 13 13 11 10 6 6 4 3 3 3 8 10 8 6 8 19 12 4 7 6 14 18 25 34 32 30 29 30 30 29 28 24 23 22 19
16 16 17 18 19 18 18 17 16 17 17 17 18 19 20 19 18 17 16 17 15 14 13 12 11 9 12 20 22 20 21 25 30 29 22 13 7 7 12 17 18 19 18 18 17 17 19 20 22 20 18 21 18 13 8 6 5 3 4 4 3 4 3 6 12 10 6 10 19 13 4 5 6 14 18 24 29 31 31 31 31 29 29 28 24 23 22 19
16 16 16 17 17 18 17 17 17 17 18 18 19 20 20 18 15 13 14 14 14 11 10 8 7 7 10 14 15 15 19 26 29 28 24 17 13 11 12 14 17 20 19 19 18 17 20 20 22 21 16 15 11 7 5 5 4 3 5 3 2 6 4 4 9 14 11 9 13 12 6 3 7 13 21 26 27 36 33 31 32 30 29 27 25 24 23 21
17 17 17 16 16 17 17 17 18 18 18 19 20 21 19 12 8 9 9 10 10 6 6 4 2 7 13 13 13 18 23 26 27 28 27 22 19 15 13 13 14 18 19 17 16 18 20 19 17 15 14 9 5 5 5 6 5 3 4 4 4 5 5 5 6 12 15 9 8 11 8 6 7 8 22 26 28 37 30 28 31 30 29 27 25 25 23 22
18 18 18 16 16 18 18 18 18 18 19 19 21 22 15 5 4 9 9 7 6 3 5 7 3 4 13 19 16 17 21 22 25 28 28 25 22 17 15 17 15 17 19 16 17 19 18 15 11 6 7 8 6 7 7 6 5 4 5 5 4 4 6 8 6 10 15 12 8 9 11 11 8 5 19 25 31 35 28 30 32 31 31 28 26 24 21 20
18 19 19 18 17 19 20 19 18 18 19 20 21 21 13 5 5 12 11 5 4 4 3 10 15 6 7 15 14 13 15 16 21 23 27 28 25 21 18 19 21 19 18 13 13 19 14 9 9 7 8 10 9 9 7 5 6 8 7 6 6 5 6 10 8 11 15 12 9 9 11 10 6 5 11 17 30 34 28 29 30 30 31 28 27 24 20 19
17 18 20 20 19 21 21 18 17 17 18 19 21 19 10 5 5 5 7 12 14 14 11 13 24 22 19 24 20 16 15 11 19 23 26 28 27 25 22 22 22 19 14 8 9 18 15 7 9 11 9 10 11 10 7 7 11 11 7 7 10 8 8 12 9 14 16 10 10 11 9 8 6 6 8 12 23 29 26 25 25 27 28 27 27 24 21 20
17 18 20 21 20 21 20 18 18 16 17 19 18 14 10 9 7 2 4 12 19 22 22 21 21 27 30 35 31 23 19 13 19 25 24 27 28 24 23 23 16 11 11 10 9 15 14 9 11 11 8 9 11 10 8 9 13 13 8 6 9 9 10 14 9 16 17 9 9 11 8 8 7 5 8 11 15 21 25 24 24 26 26 28 28 26 23 21
17 17 19 20 19 20 22 19 17 16 18 18 15 15 16 12 9 6 8 12 20 24 26 27 26 28 32 39 37 28 23 18 18 25 25 30 30 23 20 20 12 7 9 11 9 9 11 11 10 9 9 10 9 10 11 12 12 11 8 5 5 7 10 12 9 18 16 7 8 12 8 8 8 7 9 8 11 17 25 26 27 29 29 30 30 29 28 24
18 17 18 19 18 20 22 18 16 16 16 16 16 16 11 6 5 7 13 13 17 23 26 29 31 31 33 39 36 26 23 19 17 22 28 32 31 27 20 14 11 9 10 12 10 9 9 8 9 10 10 11 9 10 14 12 10 9 7 5 6 7 8 7 7 18 17 7 9 12 7 5 6 7 6 12 22 22 25 27 27 31 33 32 31 30 30 28
19 17 17 18 19 21 22 18 16 13 10 13 15 9 7 5 2 4 14 12 11 21 30 33 32 31 35 37 27 18 20 21 19 19 29 35 30 27 19 14 13 9 10 15 15 11 7 6 11 11 9 11 10 11 13 10 9 9 9 8 7 10 12 7 9 17 14 8 8 9 5 1 5 8 5 14 26 23 27 31 27 28 31 32 32 29 27 27
19 18 17 18 19 20 20 18 12 6 10 15 12 7 10 6 1 6 12 9 6 16 24 26 26 28 36 33 23 20 19 20 24 22 29 37 30 22 16 16 14 9 13 17 15 11 8 10 16 13 10 13 12 11 13 10 8 9 10 12 12 14 14 7 11 15 8 6 6 9 6 2 1 8 7 10 17 16 20 25 22 24 27 30 31 27 25 25
17 17 16 18 19 18 18 15 6 5 12 16 10 10 11 7 3 7 7 3 4 9 8 13 18 20 29 28 23 24 17 15 26 24 26 36 33 24 14 12 12 11 14 13 10 7 7 12 16 14 14 16 14 11 13 12 8 8 9 13 14 16 16 11 9 11 6 6 6 8 8 1 2 4 6 10 15 14 15 16 16 21 24 26 26 24 25 24
17 16 15 17 17 15 16 13 8 11 14 8 7 6 6 2 1 4 3 2 5 6 6 14 15 12 21 26 24 19 7 7 19 22 22 29 31 28 16 9 9 11 11 9 7 6 9 14 16 16 16 14 14 11 13 13 9 8 10 12 12 14 17 14 8 8 6 5 4 6 8 4 3 4 6 12 16 15 14 12 13 18 21 22 22 21 23 23
17 15 15 16 15 14 15 14 14 14 11 1 8 8 5 2 1 1 1 3 3 3 6 11 13 11 17 24 27 19 8 8 10 17 23 23 26 26 15 11 10 11 12 9 8 8 10 14 15 18 16 11 12 12 13 14 10 9 10 11 12 13 15 13 6 6 8 6 3 6 8 5 4 4 6 12 15 15 14 12 13 17 19 20 21 21 22 22
16 15 15 14 14 14 13 14 16 11 5 4 4 9 7 4 1 2 1 4 4 1 4 9 11 11 14 18 23 20 16 11 6 14 24 22 25 23 12 13 12 10 15 12 8 7 10 15 15 15 13 10 11 12 14 14 10 9 11 11 11 12 10 6 3 4 8 7 5 9 11 6 3 4 6 9 11 14 13 10 12 17 19 19 21 22 21 22
15 15 14 14 14 13 10 12 12 4 7 8 3 6 5 2 1 0 3 3 3 0 5 10 11 11 13 13 13 15 15 14 11 15 21 19 27 27 16 19 15 7 11 12 10 8 11 19 18 12 13 12 11 12 15 16 9 8 12 11 10 10 5 1 2 2 5 5 6 12 14 9 3 5 7 6 9 16 14 10 11 15 18 19 19 21 21 22
15 15 14 14 14 10 9 11 7 5 8 7 4 5 4 1 1 3 4 3 3 2 2 5 8 11 13 11 10 12 12 13 12 12 14 12 21 21 12 14 13 5 7 8 10 11 12 17 14 11 18 16 11 11 14 16 11 8 9 7 6 6 1 2 1 3 4 4 6 11 13 10 6 6 7 8 14 19 16 13 14 16 18 19 18 19 20 20
14 15 14 15 15 12 13 13 8 6 7 4 5 4 3 2 2 4 3 3 3 4 4 2 6 8 13 12 10 12 12 11 11 9 9 7 10 12 8 8 7 5 7 7 8 11 11 12 12 12 19 20 12 8 10 12 10 9 7 6 5 3 2 2 2 3 4 4 6 9 9 7 4 3 2 11 16 16 17 19 20 20 22 21 20 20 18 18
13 15 15 15 16 17 16 14 11 7 2 2 5 2 3 2 5 4 5 5 2 3 6 7 7 5 11 11 9 12 12 10 11 9 9 9 7 10 11 10 8 6 6 6 7 8 7 9 14 13 12 18 15 7 8 9 9 11 9 6 6 3 4 5 3 3 4 3 6 9 6 3 3 3 4 8 13 16 23 25 25 25 25 24 23 22 20 18
13 14 15 16 18 19 16 13 13 7 1 4 4 1 3 5 3 3 6 6 3 3 5 8 11 9 8 10 8 11 10 9 12 9 9 11 7 9 11 13 13 9 4 5 5 7 7 7 14 14 8 15 17 10 9 9 7 10 9 6 5 3 4 4 3 4 4 2 4 7 3 0 2 1 3 10 17 22 27 28 27 27 26 26 25 23 22 20
13 13 15 17 19 18 14 12 14 9 1 4 2 2 7 5 2 3 4 3 3 4 6 8 9 9 6 8 10 13 10 8 11 10 9 10 6 7 10 12 15 12 6 6 4 7 9 6 10 15 10 15 17 11 10 9 6 7 6 5 5 5 5 4 4 6 6 4 3 3 2 2 4 4 7 14 17 20 25 26 26 25 25 27 25 23 22 21
10 10 12 16 18 15 12 11 14 10 5 5 3 5 7 4 4 3 1 2 3 4 7 7 3 4 5 5 7 14 13 8 10 8 7 11 9 9 11 10 12 12 8 6 3 5 7 5 9 16 13 16 19 13 11 10 6 4 5 5 6 5 4 4 2 2 6 6 1 1 3 4 4 4 7 12 14 15 18 21 23 23 23 25 24 22 22 21
7 8 12 16 16 11 9 13 15 10 7 5 4 6 6 6 9 7 3 4 4 3 4 3 1 3 4 3 3 10 13 8 8 6 5 10 9 10 13 12 13 14 12 8 4 4 5 2 7 17 14 15 19 15 11 10 7 5 5 6 4 4 4 4 3 0 4 5 1 0 5 6 5 2 4 10 12 12 13 15 18 20 21 23 23 22 22 21
7 9 15 18 16 12 10 15 15 11 7 5 5 7 6 7 12 10 7 7 3 2 2 2 2 3 3 3 4 7 12 9 6 5 5 7 6 9 13 11 13 15 16 14 6 4 6 2 4 14 12 10 13 11 8 9 8 6 6 6 5 4 5 3 4 3 4 4 1 2 6 6 4 4 8 12 13 13 13 13 14 16 18 22 22 21 21 21
5 7 12 12 10 14 13 16 17 12 7 4 5 7 6 8 13 17 18 13 2 2 2 2 3 3 4 3 3 3 7 7 6 5 5 5 5 10 14 9 11 16 18 16 7 3 5 3 2 10 11 8 7 6 6 7 8 5 5 5 5 4 4 4 4 4 5 4 3 5 6 4 2 5 11 13 14 16 15 12 12 15 19 22 22 21 20 20
5 6 8 6 7 16 18 19 18 12 6 4 6 6 6 8 12 20 25 18 3 3 1 3 3 3 4 4 3 3 3 3 5 5 5 7 7 10 15 12 10 15 18 17 10 3 2 3 1 6 9 8 5 6 9 8 6 4 4 5 6 4 4 3 3 3 5 5 4 5 4 3 1 4 10 12 13 15 15 12 11 15 19 21 22 21 20 20
5 4 6 5 8 21 25 20 12 7 4 5 6 7 8 9 10 15 18 14 4 4 7 7 4 2 1 3 3 3 3 3 4 5 3 8 9 6 12 16 12 12 14 14 10 3 3 3 1 3 6 6 6 10 12 9 6 5 4 5 6 5 5 4 2 2 3 4 5 6 4 2 2 0 7 12 11 12 16 16 14 17 21 21 22 21 21 21
6 5 5 6 6 24 25 12 5 5 5 6 8 9 11 11 11 13 11 7 6 8 12 10 6 3 1 2 3 3 2 4 5 4 4 6 9 5 11 19 18 14 10 8 8 4 4 3 3 3 5 4 5 10 12 10 7 6 5 5 5 5 5 5 3 4 2 3 5 4 3 1 4 2 8 12 13 16 20 21 20 20 22 22 23 23 22 21
6 7 11 11 7 27 20 6 4 6 5 8 11 13 15 12 10 11 8 7 7 7 9 7 5 4 2 2 4 3 1 3 4 5 6 6 8 8 11 20 22 15 7 5 4 3 4 2 4 5 4 3 5 6 9 11 9 6 6 5 5 5 6 6 4 5 4 3 5 4 2 1 2 4 11 16 19 21 21 23 23 22 22 23 24 23 22 22
7 9 13 9 14 28 14 2 5 6 6 9 10 13 16 15 13 11 7 7 7 5 6 5 3 3 2 0 3 4 2 1 3 4 6 6 8 10 13 20 22 12 5 7 5 4 4 2 4 6 3 2 4 3 5 11 10 5 5 6 6 5 8 6 2 3 3 2 7 6 1 2 4 6 12 16 18 18 19 23 24 23 22 23 24 23 23 23
8 7 7 3 16 21 9 6 3 2 5 7 7 10 12 12 13 14 10 10 11 7 4 3 2 2 1 1 3 5 4 3 3 3 4 6 7 9 14 19 21 13 9 16 13 6 5 3 4 6 6 6 7 5 4 7 7 3 4 8 10 6 7 7 3 3 3 2 7 7 4 4 7 11 12 13 14 14 17 21 22 23 23 22 23 24 23 22
5 3 3 1 12 13 11 13 10 5 3 4 5 7 9 8 10 13 10 9 9 5 1 1 2 1 1 1 3 6 5 4 4 4 6 5 3 7 14 17 19 17 16 25 23 9 2 2 3 6 6 6 4 3 3 2 4 3 3 5 9 8 6 6 5 4 6 5 4 6 13 12 9 13 14 12 13 13 14 19 21 21 23 23 24 24 22 21
3 2 2 2 5 7 8 12 10 5 5 5 3 5 8 7 8 7 5 4 4 1 3 0 2 1 1 2 2 5 3 3 4 5 7 6 5 7 13 16 16 18 19 23 23 11 1 2 5 5 5 5 3 4 5 4 4 3 2 4 5 8 8 5 4 6 8 7 3 7 18 17 10 13 15 13 14 13 13 18 21 21 23 24 24 24 22 21
2 3 3 2 1 3 3 7 8 8 10 10 6 6 9 9 9 5 2 2 2 2 2 1 3 6 6 4 3 4 2 3 4 4 4 4 5 6 8 12 10 17 18 14 15 10 3 2 6 5 3 3 4 4 5 4 3 1 3 6 7 9 10 6 4 6 7 8 7 12 17 16 13 13 14 13 14 16 17 21 23 23 24 24 23 22 21 20
4 5 5 4 3 4 5 7 8 8 11 11 8 7 8 9 10 7 2 2 2 1 3 2 3 7 8 7 4 4 2 1 3 3 1 2 3 3 3 6 6 15 14 8 8 6 4 0 3 5 2 3 1 2 7 5 3 4 2 2 3 4 5 5 4 5 8 12 17 19 14 11 10 11 12 15 19 23 25 25 25 24 24 23 21 20 20 20
5 5 6 6 5 7 9 8 6 5 8 9 8 7 8 9 9 6 2 1 1 2 4 4 5 7 6 7 8 7 6 4 4 4 1 1 2 2 2 3 4 10 9 5 5 4 4 0 2 4 3 4 5 8 11 9 6 5 7 10 10 6 7 9 10 12 14 13 16 20 15 7 7 11 16 20 24 25 25 24 24 24 23 22 21 21 21 21
9 10 9 7 4 4 6 5 3 3 3 4 6 6 6 8 5 3 3 3 4 5 5 4 4 5 7 7 7 8 7 6 6 5 1 3 2 5 5 5 2 7 7 5 3 4 4 1 3 4 5 2 6 9 9 10 13 11 10 11 9 6 8 7 6 10 15 16 16 16 11 5 7 15 18 21 23 23 22 23 24 23 23 23 22 23 22 21
13 16 12 6 4 2 3 4 3 3 1 3 6 5 3 3 4 5 3 4 7 9 9 8 6 4 5 5 4 5 4 3 6 6 1 1 7 12 13 14 9 3 6 5 3 3 5 3 2 4 4 2 5 7 7 7 8 6 5 8 6 4 12 11 9 8 12 17 14 10 8 9 13 18 18 16 17 19 19 22 25 25 24 24 24 24 23 21
Wind_Direction
339 338 338 337 337 333 328 327 328 328 328 327 327 326 322 317 316 315 311 307 305 299 290 283 274 266 260 257 261 264 268 267 263 254 248 247 240 218 209 208 205 207 212 216 208 189 179 197 198 184 189 227 244 247 248 250 248 235 210 219 242 244 248 251 240 261 298 13 334 344 141 153 159 155 198 188 95 90 84 86 95 105 116 128 136 141 142 149
333 335 335 335 337 333 328 325 322 323 325 327 327 328 328 322 319 318 314 308 304 301 292 284 275 267 264 259 258 265 270 271 272 262 249 243 242 226 211 206 201 197 199 202 204 190 179 197 196 184 207 231 234 235 237 242 241 230 184 205 229 237 254 268 272 289 0 18 333 2 23 351 195 174 180 183 105 99 90 90 98 101 112 124 132 139 143 151
327 330 331 332 333 330 328 322 319 320 321 324 323 326 328 322 320 317 314 311 306 301 291 283 275 267 266 265 261 269 277 282 282 271 256 245 241 233 219 209 203 199 197 195 198 189 180 203 204 195 216 229 233 231 225 228 235 223 211 218 230 238 262 272 275 292 40 34 359 6 340 320 180 168 169 189 125 112 119 117 110 111 119 127 135 142 145 149
323 326 328 329 329 327 325 319 317 317 318 320 319 323 323 319 318 313 310 308 306 300 291 281 273 264 261 263 260 267 296 308 294 279 270 255 238 231 227 212 203 206 202 195 194 186 191 223 232 214 214 226 232 232 225 218 218 210 206 227 249 244 254 263 276 292 76 71 17 345 326 309 18 157 172 186 141 117 140 137 131 133 132 135 141 146 147 147
320 322 325 327 327 324 322 320 318 317 317 316 317 318 317 317 312 310 307 304 305 300 292 280 271 263 254 248 245 253 319 333 309 292 288 262 230 223 225 215 207 208 205 203 201 195 203 228 244 232 218 223 230 230 235 223 215 214 212 225 246 254 265 273 291 304 95 103 34 345 352 330 341 318 110 92 117 127 143 139 137 139 140 142 144 147 148 146
319 320 321 324 324 322 320 319 317 316 316 315 316 315 314 312 304 308 309 305 305 300 293 278 271 263 248 232 225 211 190 213 90 82 54 43 206 208 212 210 205 205 206 206 205 206 213 228 248 243 218 220 237 226 236 228 214 220 237 231 240 247 266 281 289 309 100 126 167 25 352 330 329 330 76 83 96 113 131 137 135 139 141 142 140 142 143 146
318 317 319 321 320 320 319 318 315 313 315 316 316 312 311 310 301 303 305 305 301 297 295 281 276 268 254 231 217 208 218 224 124 93 68 33 12 205 205 206 200 200 206 205 204 206 211 226 245 244 218 213 241 242 249 237 210 202 237 246 249 248 248 263 273 337 83 77 317 329 330 325 311 340 91 99 105 111 124 132 131 135 136 134 133 132 134 143
316 316 317 318 319 320 318 316 314 312 316 315 313 310 308 309 304 299 296 299 297 296 294 284 283 274 266 240 223 239 235 219 150 87 343 357 347 323 221 209 203 202 203 204 202 199 205 231 244 239 228 219 229 241 255 251 217 202 224 245 261 265 256 257 263 302 80 7 307 302 314 301 281 295 99 109 113 116 124 125 125 128 126 125 126 128 132 139
315 315 315 316 317 318 318 315 312 311 314 313 312 309 305 305 304 298 291 293 294 294 291 286 285 276 271 248 248 277 238 212 165 209 289 304 308 309 243 219 212 206 203 203 202 199 209 236 242 234 236 241 232 238 249 255 219 204 212 232 250 267 269 269 260 226 117 148 247 270 297 279 273 283 113 124 122 123 125 122 124 124 123 123 125 133 132 131
315 315 314 315 315 317 317 313 310 309 311 312 310 307 303 301 300 298 292 289 291 292 292 289 286 280 266 247 262 268 238 219 200 229 271 284 279 265 238 234 220 210 206 204 204 206 212 226 234 238 244 252 247 242 245 251 234 216 212 224 236 253 265 272 260 227 160 162 221 226 219 254 260 271 133 135 130 127 123 121 125 124 125 125 124 131 131 128
313 314 314 314 314 315 314 310 307 306 307 307 304 301 297 296 296 295 294 291 289 291 292 288 285 280 261 253 258 242 233 222 213 230 250 268 267 248 238 243 223 214 211 207 208 209 211 215 227 243 246 249 259 261 257 255 259 251 231 225 228 243 258 270 274 234 172 166 217 212 210 245 250 247 157 143 136 130 126 124 127 125 125 126 123 127 129 127
311 312 314 314 314 314 312 307 302 301 302 301 299 297 294 293 293 296 297 293 289 289 290 288 284 282 276 271 256 241 239 227 212 226 230 225 248 240 233 235 225 224 217 211 211 211 211 214 230 251 251 239 250 270 279 263 263 268 259 243 223 230 245 256 266 233 176 147 202 214 238 244 239 222 171 148 141 134 131 131 130 127 125 127 126 125 125 124
308 310 314 316 316 315 313 306 299 297 298 298 299 296 293 292 293 299 299 292 287 282 284 287 284 286 287 274 256 246 249 241 233 237 230 212 226 231 224 221 227 233 226 217 215 214 214 217 232 252 257 254 245 244 268 263 258 263 258 252 229 236 239 238 250 226 176 157 208 209 230 250 229 222 193 152 145 139 135 135 132 128 126 129 128 124 122 125
305 310 315 318 319 317 315 310 301 297 298 298 296 294 292 291 295 301 299 292 285 278 279 282 285 282 270 271 265 255 251 249 251 246 232 221 216 229 221 216 221 225 224 223 220 219 219 223 235 250 256 259 263 258 262 260 249 261 266 249 202 221 248 223 225 212 168 194 217 204 208 253 227 223 206 155 146 139 132 131 128 126 125 128 127 123 124 128
303 308 314 319 320 318 317 312 304 299 298 297 294 292 291 293 298 297 291 287 283 280 278 276 282 275 267 279 279 263 250 253 254 239 227 224 218 230 218 212 218 219 220 222 222 223 222 226 233 243 254 256 263 265 266 268 244 229 246 258 193 190 248 223 205 199 173 201 210 199 226 246 219 221 193 157 145 130 122 124 126 126 123 124 125 127 126 125
300 305 313 319 318 317 315 310 306 301 299 299 295 294 294 296 296 289 285 285 284 282 275 275 274 255 267 285 282 269 254 249 244 229 222 217 210 220 218 219 221 216 221 222 220 225 226 229 230 233 243 250 254 248 255 270 251 219 201 218 213 188 222 250 207 193 190 209 200 192 226 223 224 216 172 159 142 125 123 126 129 129 126 126 127 131 128 123
299 304 310 316 315 314 312 308 306 303 301 299 298 301 301 295 292 289 291 296 293 275 266 292 315 263 259 265 274 266 247 235 229 224 220 211 202 206 220 235 226 213 220 221 219 224 227 230 227 227 232 236 233 216 231 239 230 244 202 200 231 194 192 229 217 189 191 214 198 187 220 227 245 208 164 161 134 123 127 128 129 130 131 133 132 133 131 129
299 303 307 312 313 311 311 307 304 301 301 301 303 308 302 276 285 285 282 307 313 285 280 268 264 303 257 245 256 261 245 229 223 223 220 213 205 201 214 234 233 214 210 215 219 221 225 226 218 211 220 222 222 212 213 216 209 222 202 187 231 234 210 218 214 180 185 209 207 190 217 234 263 206 164 157 132 126 132 131 134 136 135 137 133 131 130 129
294 300 304 308 309 309 308 303 299 299 301 302 306 309 297 248 270 275 260 253 220 202 258 221 199 197 266 249 251 276 274 239 221 224 220 216 212 208 213 228 238 224 203 202 208 209 213 217 213 211 210 210 216 217 210 209 220 226 206 174 204 235 236 231 214 175 179 199 209 201 211 227 244 183 164 150 131 129 134 135 137 137 135 135 132 133 133 128
288 294 299 303 306 309 307 298 293 296 300 302 308 314 307 257 258 270 220 214 230 238 252 231 206 214 261 273 272 295 305 254 222 224 220 216 212 211 217 227 238 233 209 190 189 200 204 209 219 214 202 202 212 221 216 215 235 242 220 180 199 218 237 244 216 174 178 188 209 213 203 204 206 169 164 148 126 124 132 136 138 139 136 132 132 135 133 127
282 288 293 299 303 308 312 302 289 292 295 296 306 308 285 250 232 264 225 237 263 261 255 262 237 229 257 272 274 287 302 278 236 227 218 209 203 202 212 218 228 233 207 189 186 196 204 220 224 210 196 201 206 213 219 229 238 243 238 202 202 205 225 248 216 170 177 181 204 213 189 189 204 165 159 153 125 128 141 144 142 139 130 127 129 128 125 123
278 283 289 296 298 306 315 307 289 288 287 287 293 279 270 262 236 276 299 271 278 269 255 266 260 245 256 263 265 273 282 279 256 239 216 196 193 192 199 206 214 221 196 192 191 189 208 225 216 198 198 206 202 197 214 236 243 244 249 235 228 213 217 246 213 168 176 181 195 205 189 193 198 159 159 142 109 129 144 146 146 136 124 122 124 123 122 122
276 278 285 291 294 305 315 310 291 284 280 283 283 273 287 306 225 268 291 275 280 274 255 250 248 245 251 256 257 262 264 261 266 248 209 188 191 192 190 196 207 210 193 199 202 190 209 218 203 200 196 198 202 196 207 232 244 244 243 234 252 239 219 237 191 168 179 182 178 190 185 189 177 140 138 103 91 99 113 119 126 126 122 121 122 124 125 124
273 274 280 286 290 304 315 308 289 285 293 293 285 286 343 338 202 297 289 278 290 276 258 245 238 238 241 247 248 246 249 244 258 248 197 185 189 190 193 195 197 209 199 204 210 209 215 180 185 206 197 194 208 205 203 217 238 242 236 228 242 246 238 227 171 168 180 190 171 157 122 161 150 116 112 99 93 92 98 100 102 108 115 118 120 123 124 126
272 272 275 280 287 303 312 302 288 315 318 295 294 353 2 332 326 323 292 284 288 270 264 245 232 235 236 240 240 237 248 243 252 247 192 185 186 183 197 195 190 216 205 201 211 219 221 174 179 202 202 201 213 215 205 202 224 245 236 229 234 245 256 243 164 157 167 209 189 141 113 303 196 119 124 105 96 97 99 98 96 100 107 112 114 117 119 122
269 269 271 277 288 302 306 295 282 307 292 284 309 344 337 339 331 289 271 284 280 256 247 202 204 228 229 229 227 227 249 251 251 247 190 184 189 181 193 194 187 214 205 198 212 217 214 185 181 197 200 202 213 220 213 200 207 240 230 225 231 239 258 260 183 158 161 201 190 151 140 223 280 131 131 112 103 102 96 94 97 99 104 107 109 113 117 119
266 263 267 275 287 301 296 284 266 264 267 284 16 1 318 26 108 258 230 257 263 224 176 163 174 205 211 213 206 204 236 225 236 242 196 184 189 184 193 199 185 204 199 191 209 206 202 195 187 195 199 202 211 215 212 203 201 233 230 222 230 233 245 253 215 175 175 177 154 137 133 133 201 204 157 124 108 101 95 93 97 98 102 106 107 110 114 118
263 257 263 271 285 296 288 285 274 254 246 256 57 39 331 308 199 269 173 268 269 168 155 162 175 190 191 196 196 199 224 182 194 230 210 192 189 186 195 209 192 196 200 197 206 194 194 204 192 190 199 205 207 209 209 208 208 227 236 231 233 232 237 249 239 185 172 161 130 133 128 125 191 212 159 134 119 113 113 111 108 105 107 106 105 108 112 117
259 250 258 267 280 291 291 285 267 241 243 287 26 26 333 287 316 359 187 257 291 183 151 151 163 182 176 176 187 203 225 223 202 206 207 206 200 194 201 216 205 192 206 217 215 188 190 215 209 188 198 210 204 204 207 215 216 216 234 245 243 239 235 237 235 184 159 156 169 160 144 129 205 219 165 150 137 129 125 121 118 113 113 112 110 111 113 115
256 246 253 264 274 291 298 276 256 265 325 301 338 10 309 235 96 227 208 246 304 342 143 146 155 175 176 165 181 201 215 236 241 197 197 208 204 202 206 217 224 211 209 219 219 208 195 212 222 204 197 204 202 203 210 219 215 201 226 247 255 248 239 157 201 169 139 167 191 174 158 137 158 209 186 166 141 135 131 124 123 118 116 115 112 112 113 113
252 242 245 258 269 285 280 253 243 298 296 278 301 304 265 178 128 205 213 248 299 331 92 157 174 170 170 164 174 196 207 233 242 201 190 198 199 202 197 209 228 231 212 213 213 223 205 200 219 213 195 194 201 203 209 219 216 205 218 230 253 258 271 40 259 163 154 210 212 181 167 148 151 214 200 152 135 138 138 134 132 127 121 116 110 110 111 111
245 241 242 254 265 272 262 245 230 250 254 257 285 256 166 142 222 223 256 287 294 312 351 288 217 175 170 175 173 186 202 225 240 217 187 179 189 199 197 200 202 192 210 205 195 217 219 200 205 206 192 189 199 200 201 215 210 209 216 197 214 245 188 189 203 183 192 217 203 174 166 160 154 258 214 136 137 139 133 131 132 129 124 120 116 114 112 111
234 238 244 254 266 268 265 256 235 229 254 291 266 213 133 224 217 198 253 278 301 302 326 320 286 231 181 179 173 181 196 218 234 227 189 181 183 193 212 223 200 187 206 200 188 202 225 214 199 202 191 187 199 194 189 208 195 201 215 181 176 183 175 193 172 179 211 211 185 163 154 170 134 346 345 108 120 121 118 120 123 123 123 120 120 121 117 115
231 239 247 257 269 267 264 254 226 210 330 299 275 179 185 235 229 192 231 257 290 283 302 328 321 297 215 191 177 175 191 220 227 224 191 187 191 185 206 224 215 212 203 191 200 191 208 222 194 196 186 180 198 203 184 192 186 205 213 168 175 187 160 181 159 162 195 184 160 149 136 319 112 18 11 86 98 106 110 114 115 115 118 119 120 121 119 117
230 243 254 263 267 262 259 240 206 188 240 281 275 190 203 221 252 238 239 270 314 318 323 335 332 317 261 211 188 175 184 219 222 222 202 192 199 183 192 215 218 218 201 182 210 199 206 228 188 193 194 176 192 209 188 183 192 211 202 163 199 207 144 153 168 154 153 140 121 121 91 50 88 72 70 89 95 103 109 114 115 116 120 122 121 121 121 121
241 257 268 269 263 256 246 219 188 178 211 230 209 211 217 223 244 258 313 322 294 323 342 345 333 298 276 238 200 182 183 209 218 217 206 198 205 190 188 210 218 221 218 187 195 193 197 224 184 187 204 191 186 198 194 188 189 191 194 194 206 202 146 123 161 139 114 123 149 82 104 107 102 66 79 100 103 108 115 117 119 123 125 123 122 124 125 122
271 278 272 264 260 256 222 189 175 177 211 220 211 222 224 239 257 269 280 269 286 348 357 342 283 264 255 251 237 188 177 195 217 207 196 201 204 189 188 205 215 222 232 216 204 189 180 230 193 184 204 206 186 188 204 206 193 169 193 208 190 208 207 126 123 21 96 120 257 356 135 152 158 148 133 126 116 117 124 121 120 124 124 121 123 128 127 122
280 280 272 263 251 240 201 175 173 180 202 220 230 238 239 244 256 268 275 269 270 35 347 258 246 290 253 235 278 203 175 181 206 199 196 199 197 191 190 201 211 220 234 227 217 215 189 189 214 193 197 201 180 178 213 235 229 192 174 179 159 190 229 176 158 176 131 127 94 123 159 180 190 174 160 148 139 136 133 128 126 127 124 123 124 126 124 121
280 275 279 276 231 211 195 176 178 183 188 212 223 232 247 257 261 266 271 277 280 104 304 248 213 276 275 259 295 240 194 193 200 201 206 193 186 198 196 198 207 215 233 234 216 212 194 145 210 201 179 165 167 174 206 234 244 217 163 168 178 179 183 175 184 171 136 133 127 137 173 225 247 176 168 159 150 145 142 138 134 131 128 125 124 125 122 117
267 253 275 292 177 184 184 173 178 185 187 217 224 232 254 261 260 253 251 255 256 111 258 274 217 227 276 291 322 322 292 260 221 219 208 186 180 192 195 197 207 210 226 235 222 196 151 113 182 206 170 155 165 198 206 204 213 215 180 178 198 198 169 171 218 185 136 132 137 138 176 237 246 174 169 157 146 144 143 137 129 127 127 125 126 125 120 116
247 238 271 290 170 176 178 169 175 193 194 227 232 238 254 257 263 260 247 239 218 191 232 252 244 211 269 306 337 343 313 318 282 259 224 186 179 189 199 197 203 209 215 225 219 184 110 136 189 212 186 173 177 198 209 208 199 199 195 185 188 182 158 149 245 230 143 135 145 145 159 196 325 254 153 143 141 143 138 131 126 126 126 126 126 123 120 119
251 238 273 318 173 178 179 166 177 203 200 231 235 236 247 250 259 268 264 247 233 229 231 232 236 237 200 239 289 314 291 304 298 279 274 208 188 199 205 197 205 216 207 203 205 166 105 129 149 186 212 216 201 195 202 218 229 223 220 199 172 165 145 132 178 216 190 140 122 105 124 156 339 5 133 133 133 133 132 130 126 126 128 126 122 122 121 118
264 270 290 316 173 174 177 165 191 202 217 241 242 246 251 254 258 261 266 268 260 244 230 217 215 232 212 199 260 299 329 283 283 278 281 250 209 215 209 198 208 217 190 171 197 141 94 99 140 167 210 243 241 213 192 209 237 248 233 201 170 178 162 140 155 180 194 178 121 86 71 127 23 67 117 125 126 126 128 129 127 126 126 123 121 122 120 115
292 288 295 303 166 167 176 198 183 197 231 239 242 251 254 257 260 257 253 255 252 243 238 231 195 213 234 297 271 295 345 276 282 293 278 253 223 232 228 207 208 213 168 166 181 146 153 157 124 146 163 202 235 252 197 204 219 230 224 206 190 173 157 151 122 131 191 187 124 118 112 134 126 113 115 121 124 123 125 127 126 124 123 122 124 122 117 114
310 289 294 267 171 175 210 262 233 224 237 247 263 262 258 257 256 252 247 249 245 231 229 233 142 138 220 350 305 292 286 251 265 307 290 256 217 235 246 220 207 213 186 167 164 163 186 181 115 142 170 183 195 216 217 202 202 217 233 204 192 179 156 158 136 128 179 123 104 119 126 116 117 116 116 122 124 122 123 124 122 122 123 125 125 121 117 115
323 290 320 131 174 195 241 260 274 296 259 273 291 268 263 265 258 251 249 265 261 234 119 75 104 99 185 196 279 279 271 263 269 301 305 282 239 249 252 229 210 207 182 158 155 165 221 183 133 145 172 189 207 246 251 181 169 196 281 234 201 205 193 148 127 161 163 109 76 126 133 128 130 130 131 135 131 127 125 123 120 121 124 124 122 119 117 115
314 279 333 72 178 214 250 257 267 274 254 263 273 273 283 284 275 257 233 274 298 97 84 92 200 221 205 179 265 273 293 321 283 284 293 278 284 284 258 243 221 193 166 148 153 162 130 174 171 155 172 198 243 281 258 219 180 159 244 279 238 218 213 166 141 178 155 108 73 147 138 135 147 147 143 143 137 130 127 126 124 125 125 124 122 121 119 120
283 283 295 333 226 206 228 250 253 251 252 256 254 270 284 287 290 287 241 282 323 108 115 244 216 223 217 200 259 270 281 323 284 272 286 264 288 313 273 254 215 164 148 142 154 152 95 179 187 160 160 207 220 254 264 233 216 174 211 251 258 234 220 195 169 182 156 129 147 163 148 139 145 147 141 139 134 127 125 126 126 126 125 125 126 125 125 124
297 298 297 321 303 255 265 266 260 255 250 247 246 254 265 276 281 281 268 314 331 203 205 224 229 235 218 192 217 261 234 266 280 268 288 285 304 335 288 258 187 149 141 141 157 141 82 223 193 145 135 308 286 40 10 2 288 276 271 313 306 248 194 134 113 108 108 122 138 142 131 119 129 136 130 128 126 123 123 123 124 125 127 131 132 129 126 121
297 306 308 316 301 274 275 272 267 271 261 252 248 240 244 259 270 280 276 253 315 281 241 228 238 256 246 205 203 229 228 211 236 250 216 89 342 332 294 268 181 149 142 136 142 113 90 353 300 117 120 328 10 46 34 41 54 26 22 30 33 54 89 98 104 96 91 102 122 124 113 91 105 114 116 122 124 123 123 125 127 132 136 137 132 124 120 116
319 327 315 296 279 277 286 289 276 262 263 266 261 245 242 256 276 354 339 268 261 261 257 276 286 275 273 253 222 227 232 219 236 259 178 129 272 294 291 283 209 144 144 143 122 76 92 130 339 75 108 336 9 42 50 70 71 52 27 11 13 54 79 80 93 108 118 124 122 120 119 127 131 119 116 122 125 126 130 134 136 140 141 136 127 121 121 120
338 340 336 308 270 265 302 315 303 261 256 325 305 294 285 298 348 26 358 289 269 252 249 265 278 281 292 290 249 224 215 233 269 286 43 142 277 290 293 293 288 209 152 130 101 84 106 112 49 84 102 344 2 39 42 56 63 44 357 332 322 86 89 68 43 66 117 133 138 143 142 141 138 129 124 129 131 133 139 141 140 140 137 130 125 125 125 125